Theta_e
315 315 314 314 314 314 314 314 314 314 314 314 313 313 313 313 313 313 313 313 313 313 313 313 313 313 314 314 314 314 314 314 314 314 314 314 314 314 314 314 314 313 313 312 312 312 312 312 313 312 312 312 311 310 310 309 309 309 309 309 309 310 311 311 311 311 311 311 310 310 310 310 310 310 309 309 309 309 308 308 308 308 308 308 307 307
314 314 314 313 313 313 313 313 313 313 313 313 313 313 313 313 313 313 313 313 313 313 312 313 313 314 314 314 314 314 314 314 313 313 314 314 314 314 314 313 313 312 312 312 312 312 312 311 311 311 311 311 310 310 309 309 309 309 309 309 310 311 311 312 312 311 311 311 310 310 310 310 310 310 310 309 309 309 308 308 308 308 307 307 307 306
313 313 313 313 313 312 312 312 312 312 312 312 312 313 313 313 312 313 312 312 312 312 312 313 313 314 314 314 314 313 313 313 313 314 314 314 313 313 313 312 312 312 312 312 311 311 311 310 310 310 310 310 310 310 309 309 309 310 309 309 310 310 311 311 311 311 310 310 310 310 310 310 310 309 309 308 308 308 308 308 307 307 307 307 306 305
312 312 312 312 312 311 311 311 311 311 311 311 312 313 313 313 312 312 312 312 312 312 313 313 314 314 314 313 313 313 313 313 313 313 313 313 312 312 312 312 312 311 311 311 311 310 310 310 310 309 309 309 309 309 309 309 309 309 309 309 309 310 310 310 310 309 309 309 309 308 308 308 308 307 307 307 307 307 306 306 306 306 306 305 305 304
311 311 311 311 311 311 311 311 311 310 310 311 311 312 312 312 312 312 312 312 312 312 313 313 313 313 313 313 313 313 314 313 313 312 312 312 312 311 311 311 311 311 311 310 310 310 310 309 309 309 309 309 309 309 309 309 309 308 308 308 308 308 308 308 308 308 308 307 307 307 306 306 305 305 305 305 304 304 303 303 303 303 303 303 303 303
310 310 310 310 311 311 311 311 311 310 310 310 310 311 311 311 311 311 311 311 312 312 312 313 313 312 312 312 313 313 313 313 312 312 311 311 311 311 311 311 311 311 310 310 310 310 309 309 309 308 308 308 308 309 309 308 308 307 307 307 307 307 307 307 307 306 306 306 306 305 305 304 303 303 302 302 301 301 300 300 300 301 301 302 302 302
309 309 309 310 310 310 310 310 310 310 310 310 310 310 310 310 310 310 310 311 311 311 312 312 313 312 312 312 313 313 313 312 312 311 311 310 310 310 310 311 311 310 310 310 310 309 309 309 308 308 308 308 308 308 308 308 307 307 307 306 306 306 306 306 305 305 305 305 304 304 303 302 302 301 300 299 299 299 298 298 298 298 299 300 301 302
308 309 309 309 309 310 310 310 310 309 309 309 309 309 309 309 310 310 310 310 310 311 312 313 313 313 313 312 312 312 312 311 311 310 310 310 310 310 310 310 310 310 310 310 309 309 309 308 308 307 308 308 308 308 308 308 307 307 306 306 306 306 305 305 305 304 304 303 303 303 302 301 300 299 298 298 298 298 298 297 297 297 298 300 301 302
308 308 308 308 309 309 309 310 310 310 309 308 308 308 308 308 309 309 309 309 310 310 312 312 313 313 312 312 311 311 311 310 310 310 309 309 309 309 309 310 310 310 309 309 309 308 308 307 307 307 307 308 308 308 308 307 307 307 306 306 306 306 305 304 304 303 303 302 302 301 301 300 300 299 298 298 298 298 298 297 296 296 297 299 301 302
307 307 307 307 308 308 308 309 309 309 309 308 307 307 307 307 307 308 308 309 310 310 311 312 312 311 311 311 310 310 310 309 309 309 309 308 308 309 309 309 309 309 309 308 308 308 307 307 306 306 307 307 308 308 308 307 307 306 306 306 305 305 305 304 303 303 302 302 301 301 300 300 299 299 298 298 298 298 298 296 296 296 298 299 301 301
307 307 307 307 307 307 307 307 307 307 307 307 307 307 307 307 307 307 308 309 309 310 310 310 310 310 310 310 310 309 309 309 308 308 308 308 308 308 308 308 308 308 308 308 307 307 307 306 306 306 306 307 307 307 307 307 307 306 306 305 305 304 304 303 303 302 302 302 301 300 300 299 298 298 298 298 298 298 297 296 296 297 298 299 301 301
306 307 307 307 307 307 307 306 307 307 307 307 308 308 308 308 308 308 308 308 309 309 309 309 309 309 309 309 309 309 308 308 308 308 308 308 308 308 308 308 308 308 307 307 307 306 306 306 306 306 306 306 307 307 307 306 306 306 305 305 304 304 303 303 302 302 302 301 301 300 299 298 298 297 298 298 297 297 296 295 296 297 298 300 301 301
306 307 307 307 307 307 307 307 307 308 308 308 308 309 309 309 309 309 308 308 309 309 309 309 309 309 309 309 308 308 308 308 308 308 308 308 308 308 308 308 307 307 307 307 306 306 306 306 305 305 306 306 306 306 307 306 306 305 305 304 303 303 302 302 302 302 301 301 300 299 298 297 297 296 296 296 296 295 295 295 296 297 299 300 301 301
307 307 307 307 307 307 307 308 308 309 309 309 309 309 309 309 309 309 309 309 309 309 309 309 309 309 309 309 308 308 307 307 307 307 307 307 307 307 307 307 307 307 307 306 306 306 306 305 305 305 305 305 306 306 307 306 306 305 304 303 302 302 302 302 302 301 301 300 299 298 297 296 295 294 294 294 294 294 294 295 296 297 298 299 300 300
308 308 308 308 308 308 308 308 309 308 308 308 308 309 309 309 310 310 310 310 310 310 310 309 309 310 309 309 308 308 307 307 307 307 306 306 307 307 307 307 306 306 306 306 306 306 305 305 305 304 304 304 305 305 306 306 305 304 303 302 302 302 301 301 301 301 300 299 298 296 295 294 293 293 293 292 293 293 293 294 295 296 297 298 298 299
308 308 308 307 307 308 308 308 308 308 308 308 309 309 310 310 310 310 310 310 310 310 310 310 310 310 309 309 308 308 307 307 306 306 306 306 306 306 306 306 306 306 306 306 305 305 305 305 304 304 304 304 304 304 305 305 304 303 302 302 301 301 301 301 301 300 299 298 296 295 293 292 291 291 291 291 291 292 292 293 294 294 295 296 296 297
308 308 308 308 308 308 308 308 308 309 309 309 309 309 309 310 310 310 310 310 310 310 310 310 309 309 309 309 308 308 307 307 306 306 305 305 306 306 306 306 306 305 305 305 305 305 305 304 304 304 303 303 303 303 303 304 303 303 302 302 301 301 301 301 300 300 298 296 295 293 292 291 290 290 290 290 290 291 291 292 292 293 293 294 294 295
308 308 308 308 308 308 308 308 309 309 309 309 309 309 310 309 309 309 309 310 310 310 310 310 309 309 309 309 308 308 307 307 306 305 305 305 305 305 305 305 305 305 305 305 305 305 305 304 304 303 303 303 303 303 303 303 303 303 302 302 302 301 301 301 300 299 297 295 293 292 290 290 289 289 289 289 289 290 290 290 291 291 292 292 292 292
308 308 308 308 308 309 308 309 309 309 309 309 309 310 309 309 309 309 309 309 309 310 309 309 309 309 309 308 308 308 307 306 306 305 305 305 305 305 305 305 305 305 305 305 305 305 305 304 304 303 303 303 303 302 302 302 302 302 302 302 302 301 301 301 300 298 296 294 292 291 290 289 289 289 289 289 289 289 289 290 290 290 290 290 291 291
308 308 308 308 308 308 308 308 308 309 309 309 309 309 309 309 309 309 309 309 309 309 309 309 308 308 307 307 307 307 306 306 305 305 305 304 304 304 304 304 304 305 305 305 305 305 304 304 303 303 303 302 302 302 302 302 302 302 302 301 301 301 301 300 299 297 294 292 291 290 289 289 289 289 289 289 289 289 289 289 289 289 289 289 289 289
308 307 307 307 307 307 308 308 308 308 308 309 309 309 309 309 309 309 309 309 309 309 309 308 308 308 308 307 306 306 306 305 305 304 304 304 304 304 304 304 304 304 304 304 304 304 304 303 303 303 302 302 302 302 302 302 302 302 301 301 301 301 300 299 298 295 293 292 290 290 289 289 289 289 289 289 289 289 289 289 289 289 289 289 289 289
307 307 308 308 308 307 308 308 308 308 308 308 309 309 309 309 309 309 309 309 308 308 308 308 308 308 307 307 306 305 305 305 304 304 304 303 303 304 304 303 303 303 303 303 304 304 303 303 303 303 302 302 302 302 301 301 301 301 301 301 300 300 300 298 296 294 292 291 290 289 289 289 289 289 289 289 289 289 289 289 289 289 289 289 289 289
307 307 307 307 307 307 307 307 308 308 308 308 308 308 309 309 309 309 308 308 308 308 308 308 308 307 307 306 305 305 305 305 304 304 303 303 303 303 304 303 303 303 303 303 303 303 303 303 303 302 302 302 302 301 301 301 301 301 300 300 300 299 298 297 295 293 291 290 290 289 289 289 289 289 289 289 289 289 289 289 289 289 289 289 289 289
307 306 306 306 306 306 307 307 308 308 308 308 308 308 308 308 308 308 308 308 308 308 308 307 307 307 306 306 305 305 305 305 304 304 303 303 303 303 303 303 303 303 303 303 303 303 303 303 303 302 302 302 301 301 301 301 301 300 300 300 299 298 297 295 293 292 291 290 290 289 289 289 289 289 289 289 289 289 288 288 288 288 288 288 288 289
306 305 305 305 305 306 306 307 307 307 307 307 307 307 308 308 308 308 308 308 307 307 307 307 307 306 306 306 306 305 305 304 304 304 303 303 303 303 303 303 303 303 303 303 303 303 303 303 303 302 302 302 301 301 301 301 300 300 300 299 298 297 295 294 292 291 290 290 289 289 289 289 289 289 288 288 288 288 288 288 288 288 288 288 288 288
305 305 305 305 305 306 306 306 306 306 306 306 307 307 307 307 307 307 307 307 307 307 306 306 306 306 306 306 306 305 305 304 304 304 304 303 303 303 303 303 303 303 303 303 303 303 303 302 302 302 302 302 301 301 301 300 300 300 299 298 297 295 294 292 291 290 290 290 289 289 289 289 289 288 288 288 288 288 288 288 288 288 288 288 288 288
304 304 304 305 305 305 305 305 305 305 305 306 306 306 306 306 306 306 306 306 306 306 306 306 306 306 306 306 306 305 305 304 304 304 304 303 303 303 303 303 303 303 302 302 302 302 302 302 302 302 302 301 301 301 300 300 299 299 298 297 295 294 293 291 291 290 290 289 289 289 289 289 288 288 288 288 288 288 288 288 288 288 288 288 288 288
304 304 304 304 304 304 304 305 305 305 305 305 305 305 305 305 305 305 306 305 305 305 305 305 305 305 305 305 305 305 304 304 304 303 303 303 302 302 303 303 303 302 302 302 302 302 302 301 301 301 301 301 301 300 300 299 298 297 296 295 294 293 291 291 290 290 289 289 289 289 289 289 288 288 288 288 288 288 288 288 288 288 288 288 288 288
304 304 304 304 304 304 304 304 304 304 304 304 304 304 304 304 304 304 305 305 304 304 304 304 304 304 304 304 304 304 304 303 303 303 303 302 302 302 303 303 302 302 301 301 301 301 301 301 301 300 300 300 300 299 299 298 297 296 295 294 293 292 291 290 290 289 289 289 289 289 289 288 288 288 288 288 288 288 288 288 288 288 288 288 288 288
303 303 304 304 304 304 304 304 304 304 304 304 304 304 303 304 303 303 303 303 303 303 302 302 302 302 302 302 302 302 302 302 302 302 302 302 302 302 302 302 302 301 301 300 300 300 300 300 300 299 299 299 299 298 297 296 295 294 293 292 292 291 290 290 289 289 289 289 289 289 289 288 288 288 288 288 288 288 288 288 288 288 288 288 288 288
303 303 303 303 303 303 303 303 303 303 303 303 303 303 303 303 303 302 302 301 301 300 300 300 300 300 300 300 300 300 300 300 300 300 300 300 300 300 301 301 301 300 300 299 299 298 298 298 298 298 298 297 297 296 295 294 293 292 292 291 291 290 290 289 289 289 289 289 288 288 288 288 288 288 288 288 288 288 288 288 288 288 288 288 288 288
302 302 302 302 302 302 302 302 302 302 302 302 302 302 302 302 301 301 300 299 298 297 297 297 297 297 297 297 297 297 297 297 297 297 297 298 298 298 298 299 298 298 298 298 298 297 297 297 297 296 296 295 294 294 293 292 291 291 291 290 290 290 290 289 289 289 289 288 288 288 288 288 288 288 288 288 287 287 288 288 288 288 288 288 288 288
302 302 302 302 302 302 302 302 302 302 302 302 302 301 301 300 300 299 298 297 296 295 294 294 294 294 294 294 294 294 294 295 295 295 295 295 295 296 296 296 296 296 296 296 296 296 296 295 295 295 294 293 293 292 291 291 290 290 290 290 289 289 289 289 289 289 288 288 288 288 288 288 288 288 288 287 287 287 287 287 288 288 288 288 288 288
302 302 301 301 301 301 301 301 301 301 301 301 301 300 300 299 298 297 296 295 294 293 292 292 292 292 292 292 292 292 292 292 293 293 293 293 293 294 294 294 294 294 294 294 294 294 294 293 293 293 292 292 291 291 290 290 290 290 289 289 289 289 289 289 289 289 288 288 288 288 288 288 288 288 287 287 287 287 287 287 288 288 288 288 288 288
301 301 301 301 301 301 300 300 300 300 300 299 299 299 298 297 296 296 295 294 293 293 291 291 290 290 291 291 290 290 290 291 291 291 291 291 292 292 292 292 292 292 292 292 292 292 292 291 291 291 290 290 290 290 290 290 289 289 289 289 289 289 289 289 288 288 288 288 288 288 288 288 288 288 288 287 288 287 287 287 287 287 288 288 288 288
300 300 300 300 300 300 299 299 299 298 298 297 297 296 296 295 295 294 294 293 293 292 291 291 290 290 289 290 290 290 290 290 290 290 290 290 290 290 290 290 291 291 291 291 290 290 290 290 290 290 289 289 289 289 289 289 289 289 289 289 289 289 289 288 288 288 288 288 288 288 288 288 288 287 288 288 288 288 288 288 288 288 288 288 288 288
299 299 299 300 299 299 298 297 297 297 296 295 295 294 294 293 293 293 292 292 291 291 291 290 290 289 289 288 289 289 289 289 289 289 289 289 289 289 289 289 289 289 289 289 289 289 289 289 289 289 289 289 289 289 289 289 289 289 289 288 288 288 288 288 288 288 288 288 288 288 288 288 288 287 288 288 288 288 288 288 288 288 288 288 288 288
298 298 298 298 298 297 296 296 295 295 294 294 293 293 292 292 292 291 291 290 290 290 289 289 289 288 288 288 288 288 288 288 288 288 288 288 288 288 288 288 288 288 288 288 288 289 288 288 288 289 289 289 288 288 288 289 289 289 288 288 288 288 288 288 288 288 288 288 288 288 288 288 287 288 288 288 288 288 288 288 288 288 288 288 288 288
297 296 296 296 296 296 295 294 294 293 293 292 292 291 291 290 290 290 289 289 289 289 288 288 288 287 287 287 287 287 287 287 287 287 287 287 287 287 287 287 287 288 288 288 288 288 288 288 288 288 288 288 288 288 288 288 288 288 288 288 288 288 288 288 288 288 288 288 288 288 287 287 287 288 288 288 288 288 288 289 289 288 288 288 288 288
296 296 295 295 294 294 294 294 293 293 292 291 291 290 289 289 289 289 288 288 288 288 287 287 287 287 287 287 287 287 287 287 287 287 287 287 287 287 287 287 287 287 287 287 287 287 287 287 287 287 287 287 287 287 288 288 288 288 288 288 288 288 288 288 288 288 288 288 288 288 287 287 288 288 288 288 288 288 289 289 289 289 289 288 288 288
296 295 295 294 294 294 294 293 292 292 291 290 290 289 288 288 288 287 287 287 287 287 287 287 287 287 287 287 286 286 286 286 286 286 287 287 287 287 287 287 287 287 287 287 286 286 286 286 287 287 287 287 287 287 287 287 288 288 288 288 288 288 288 288 288 288 288 288 288 288 288 288 288 288 288 288 288 288 289 289 289 289 289 289 289 289
295 295 294 294 294 294 293 292 291 290 290 289 289 288 288 288 287 287 287 287 287 287 287 287 287 287 287 286 286 286 286 286 286 286 286 286 286 287 287 286 286 286 286 286 286 286 286 286 286 286 286 286 286 286 287 287 287 287 287 287 287 288 288 288 288 288 288 288 288 288 288 288 288 288 288 288 288 288 289 289 289 289 289 289 289 289
295 295 294 294 294 294 293 291 290 289 289 288 288 288 287 287 287 287 287 287 287 287 287 287 287 286 286 286 286 286 286 286 285 285 286 286 286 286 286 286 286 286 286 286 286 286 286 286 286 286 286 286 286 286 286 286 287 287 287 287 287 287 288 288 288 288 288 288 288 288 288 288 288 288 288 288 288 288 289 289 289 289 289 289 289 289
295 294 294 294 294 293 291 290 289 288 288 288 288 287 287 287 286 286 286 286 286 287 287 287 287 287 286 286 286 286 286 286 286 285 285 285 286 286 286 286 286 286 286 286 286 286 285 285 286 286 286 286 286 286 286 286 286 287 287 287 287 287 288 288 288 288 288 288 288 288 288 288 288 288 288 288 288 288 289 289 289 289 289 289 289 290
294 294 294 294 293 292 291 290 289 288 288 287 287 287 286 286 286 286 286 286 286 286 287 287 287 287 287 287 286 286 286 287 286 286 285 285 285 285 286 286 286 286 286 286 286 286 286 286 286 285 285 286 286 286 286 286 286 286 287 287 287 287 287 287 288 288 288 288 288 287 288 288 288 288 288 288 288 289 289 289 289 289 289 289 289 290
294 294 294 293 293 292 291 290 289 288 288 287 287 286 286 286 286 286 286 286 286 286 287 287 287 287 287 287 286 286 286 286 286 286 286 285 285 285 285 285 286 286 286 286 286 286 286 286 286 286 286 286 286 286 286 286 286 286 286 287 287 287 287 287 287 288 288 288 288 288 287 287 287 288 288 288 288 289 289 289 289 289 289 289 289 289
294 294 293 292 292 291 290 289 289 288 288 287 287 287 287 286 286 286 286 286 286 287 287 287 287 287 287 287 287 286 286 286 286 286 286 286 285 285 285 285 285 285 286 286 286 286 286 286 286 286 286 286 286 286 286 286 286 286 286 286 286 287 287 287 287 287 288 288 288 288 287 287 287 287 288 288 288 288 288 288 289 289 289 289 289 289
294 293 292 291 290 289 289 289 288 288 288 288 287 287 287 287 287 287 287 287 287 287 287 287 287 287 287 287 287 287 287 287 286 286 286 287 286 286 285 285 285 285 285 286 286 286 286 286 286 286 286 286 286 286 286 286 286 286 286 286 286 286 287 287 287 287 287 287 288 288 287 287 287 287 287 287 288 288 288 288 288 289 289 289 289 289
293 292 291 289 289 289 289 289 289 288 288 288 288 288 288 288 287 287 287 287 287 287 287 287 288 287 288 288 287 287 287 287 287 286 286 287 287 286 286 285 285 285 285 285 286 286 286 286 286 286 286 286 286 287 287 287 287 286 286 286 286 286 287 287 287 287 287 287 287 287 287 287 287 287 287 287 288 288 288 288 288 288 288 289 289 289
291 291 290 289 289 289 289 289 289 289 289 289 289 289 289 289 289 289 289 289 289 288 288 288 288 288 288 288 288 288 287 287 287 287 287 287 287 287 286 286 285 285 285 285 285 286 286 286 287 287 287 287 287 287 287 287 287 287 287 287 287 287 287 287 287 287 287 287 287 287 287 287 287 287 287 287 288 288 288 288 288 289 289 289 289 289
290 290 290 290 289 289 289 290 290 290 290 291 291 291 291 291 291 291 291 291 291 290 290 290 289 289 289 288 288 288 288 287 287 287 287 287 287 287 287 286 286 285 285 285 285 286 286 286 287 287 288 288 288 287 288 288 288 288 288 288 288 288 288 288 287 287 287 287 287 287 287 287 287 287 287 287 287 288 288 288 289 289 289 289 289 289
Wind_Speed
27 29 30 31 30 30 31 31 31 30 30 30 30 30 29 26 24 22 22 22 23 23 23 23 23 22 22 22 22 22 22 22 20 19 18 18 18 18 17 16 15 14 13 12 12 11 11 12 12 12 13 13 12 10 9 9 9 9 9 9 9 9 10 11 13 14 15 15 15 14 15 15 15 15 16 16 16 16 16 17 17 17 17 17 16 16
28 29 30 31 31 30 31 31 31 29 28 26 26 25 25 23 22 21 21 21 21 22 22 21 20 20 20 20 21 20 19 18 17 17 17 17 17 16 16 14 13 12 12 11 10 10 10 10 11 12 13 14 14 13 11 11 11 11 11 11 11 11 11 12 13 14 15 15 15 15 15 15 15 16 16 16 17 17 17 17 18 18 18 17 17 16
29 30 31 32 31 30 30 30 29 27 24 22 21 20 20 21 22 22 22 21 20 20 20 19 18 18 18 18 18 17 16 15 15 15 16 16 15 14 14 13 12 12 11 11 10 10 10 10 11 12 14 16 16 15 14 14 14 14 14 13 13 13 13 14 14 15 16 16 16 16 16 16 16 17 17 17 17 17 18 18 18 18 18 18 17 17
28 29 31 31 31 30 29 28 27 25 23 20 19 19 20 21 22 23 23 21 20 18 18 17 17 17 17 16 15 15 14 14 14 15 15 14 14 13 13 13 12 12 11 11 11 11 11 11 11 13 15 17 18 18 17 16 16 16 16 15 15 15 15 16 17 17 18 18 18 18 17 17 17 17 17 17 17 18 18 18 18 18 18 17 17 18
26 28 29 29 29 28 28 27 26 25 24 23 23 23 23 24 25 25 24 22 19 17 16 16 15 15 15 15 14 14 13 13 14 14 14 14 13 13 14 13 13 12 11 11 12 12 12 12 12 13 15 18 19 20 19 19 18 18 17 17 17 17 17 17 18 19 19 19 19 18 18 17 17 17 16 16 16 17 17 17 17 17 17 17 17 17
24 25 26 26 26 26 27 26 26 26 25 25 25 25 26 27 26 25 23 21 18 16 15 14 14 14 14 14 13 13 13 13 14 14 14 14 14 14 14 14 14 13 12 13 13 13 13 13 13 14 15 17 19 20 20 19 19 18 17 17 17 17 17 17 17 18 19 19 18 18 17 17 16 16 16 16 16 16 16 16 17 17 17 16 16 16
22 23 24 25 25 25 24 24 23 23 22 22 23 24 25 25 24 23 21 19 17 15 14 13 13 14 14 14 14 14 14 14 15 15 14 14 15 15 15 15 15 14 14 14 14 14 14 14 14 14 15 16 17 18 18 18 17 17 16 17 17 17 17 16 16 16 17 17 17 16 16 16 16 16 16 16 16 16 16 17 17 17 17 16 16 15
21 23 23 23 23 22 20 19 18 18 17 18 18 19 20 20 20 19 18 17 16 14 14 13 14 14 14 14 14 14 15 15 16 15 15 15 15 16 16 16 16 16 15 15 15 15 15 14 14 14 14 14 15 16 16 16 15 16 16 16 17 16 16 15 15 15 15 15 16 16 16 16 17 17 17 16 16 16 17 18 18 18 17 16 15 15
20 20 20 20 19 18 17 17 16 15 15 14 14 15 16 17 17 17 17 16 15 14 14 14 14 14 14 14 15 15 16 16 16 16 16 16 16 17 17 17 17 17 17 16 16 16 15 15 15 14 14 13 13 14 14 14 14 15 15 16 16 16 15 14 14 14 14 15 15 15 16 17 17 17 16 16 16 17 18 19 19 18 17 16 15 15
17 17 17 17 17 17 16 17 17 16 14 13 12 13 15 16 17 17 16 16 15 15 15 15 15 15 14 15 15 15 15 16 16 16 16 17 18 18 19 19 19 18 18 17 17 16 16 15 15 14 13 12 12 12 12 13 13 14 15 16 16 15 15 14 14 14 14 14 15 16 16 17 17 17 17 17 18 19 20 21 20 19 17 16 15 15
16 15 15 16 16 17 16 17 16 15 13 13 12 13 13 14 15 15 15 15 15 14 14 15 15 14 14 14 14 15 15 15 16 16 17 18 19 20 21 21 20 19 18 18 17 16 16 15 14 13 12 11 11 11 12 12 13 14 15 16 16 15 15 14 14 14 14 15 15 16 17 17 17 17 18 19 20 21 22 22 21 19 17 16 15 15
16 16 16 16 16 16 16 16 15 13 13 13 13 13 12 12 12 13 14 14 14 13 12 12 12 13 13 13 13 14 15 16 16 17 18 19 21 21 22 21 21 20 19 18 17 17 16 15 15 13 12 12 11 11 11 12 13 14 15 15 15 15 15 15 15 15 15 15 16 17 17 17 18 19 20 21 22 23 22 22 20 18 17 16 15 15
15 15 15 15 15 15 16 15 14 13 12 12 12 12 12 11 11 11 12 13 12 11 10 10 11 12 12 12 13 14 15 16 17 18 19 20 21 22 22 22 21 20 19 19 18 17 17 16 15 14 13 12 12 11 11 12 12 13 14 15 15 15 15 15 15 15 16 16 17 18 18 19 19 20 21 22 22 22 21 20 19 18 16 16 15 15
15 15 15 15 15 15 16 16 16 14 12 10 10 10 11 12 12 12 12 12 12 11 11 11 11 12 12 12 13 14 15 16 17 18 20 21 22 22 22 22 22 21 20 20 19 19 18 17 16 15 13 13 12 12 12 12 12 13 14 15 15 15 15 15 15 16 16 17 18 18 19 19 19 20 21 21 21 21 20 19 18 17 16 16 16 15
15 15 15 15 15 15 16 16 16 15 14 12 11 12 13 14 14 14 14 14 13 12 12 12 13 13 13 13 13 14 15 16 17 19 21 22 22 22 22 22 22 22 21 21 20 20 19 18 17 15 14 13 13 13 12 12 12 13 14 15 15 16 16 16 16 16 17 17 18 19 19 19 19 20 20 20 20 19 19 19 18 17 17 16 16 16
15 16 16 15 15 15 16 16 16 16 15 14 14 15 16 17 17 16 16 16 15 15 14 14 14 14 14 14 14 15 15 16 18 20 22 23 23 23 23 22 23 22 22 21 21 21 20 19 18 16 15 14 13 13 13 13 13 13 14 15 16 16 16 16 16 16 17 17 18 19 19 19 19 19 19 19 19 18 18 18 18 18 17 17 16 16
16 16 16 16 16 16 16 16 16 16 16 16 17 17 18 18 17 17 17 17 17 16 15 15 15 15 15 15 15 16 17 17 18 20 22 24 24 24 23 23 23 23 22 22 22 21 21 20 18 17 15 14 14 14 14 14 14 14 15 15 16 16 16 16 16 17 17 18 18 18 19 18 18 18 18 18 18 18 18 18 18 18 17 17 16 16
15 16 16 16 16 17 17 18 18 17 17 17 17 17 17 16 16 16 16 16 16 15 15 15 15 15 15 15 15 16 17 18 19 21 23 25 25 24 24 23 23 23 23 22 21 21 20 20 18 17 16 15 14 14 14 15 15 15 16 16 17 17 17 16 17 17 17 18 18 18 18 18 18 17 17 17 17 17 17 17 17 17 17 16 16 16
14 15 15 16 16 16 17 18 18 17 16 16 15 15 15 15 14 14 14 14 14 14 14 14 14 15 14 14 14 14 15 16 18 20 23 25 25 24 24 24 23 23 23 22 21 20 20 19 18 17 16 15 15 15 15 16 16 17 17 17 17 17 17 17 17 17 17 17 17 17 17 17 17 17 16 16 16 16 17 17 17 17 16 16 16 15
14 14 14 15 15 16 16 16 16 15 15 15 14 14 14 13 13 13 14 13 13 13 13 13 13 14 14 13 12 12 13 15 17 19 21 23 24 24 24 24 24 24 24 23 22 20 20 19 18 17 16 16 15 15 16 16 17 17 17 18 18 18 17 17 17 17 17 17 17 17 16 16 16 16 16 16 16 16 16 16 16 16 16 15 15 15
13 14 14 14 15 15 15 15 15 15 15 14 14 13 12 12 11 12 12 12 12 13 13 13 13 13 12 11 10 10 11 13 15 18 19 21 23 24 23 24 24 24 24 24 22 21 20 19 18 18 17 16 16 16 16 17 17 18 18 18 18 18 18 18 18 18 17 17 16 16 16 16 15 15 15 16 16 16 16 16 16 16 15 15 15 15
13 13 14 14 14 14 14 14 14 14 14 14 13 12 12 11 10 10 11 11 12 12 13 13 13 11 10 10 10 10 11 13 14 16 18 20 22 23 22 23 23 24 24 23 22 21 20 19 19 18 17 17 17 17 17 17 18 18 18 18 18 18 18 18 18 18 17 16 16 15 15 15 15 15 15 15 15 16 16 16 16 15 15 15 15 14
13 13 14 14 13 13 13 13 13 13 14 13 13 12 12 11 10 10 10 10 11 12 12 12 11 10 10 10 10 11 12 13 14 16 17 20 21 22 22 22 22 23 23 23 22 21 20 19 19 18 18 18 18 18 18 18 18 18 19 19 19 19 19 19 18 18 17 16 16 15 15 15 15 15 15 15 15 15 15 15 15 15 15 15 15 14
13 13 13 13 13 12 11 12 12 13 13 13 12 12 12 12 11 11 11 12 12 12 12 12 12 12 12 11 11 12 12 13 14 16 17 19 20 21 21 21 21 21 21 21 21 21 20 19 19 18 18 18 18 18 18 18 18 19 19 19 19 19 19 19 18 18 17 16 15 15 15 15 15 15 15 15 15 15 15 15 15 15 15 15 14 14
13 13 13 12 12 11 11 12 13 13 13 12 12 12 12 12 12 12 13 13 13 13 13 13 13 13 13 13 13 13 13 14 15 16 17 18 20 21 21 20 20 20 20 21 21 20 20 19 19 19 19 19 19 19 18 18 19 19 19 19 19 20 20 19 18 18 17 16 15 15 15 15 15 15 15 15 15 15 15 14 14 14 14 14 14 14
12 12 12 12 12 12 12 12 13 13 13 12 12 12 13 13 13 13 13 13 14 14 14 14 14 14 14 14 14 14 14 14 15 15 16 18 19 21 21 20 19 20 20 21 21 20 19 19 19 19 19 19 19 18 18 18 19 19 19 20 20 20 20 19 18 17 17 16 15 15 15 15 15 16 16 15 15 15 14 14 14 14 14 14 14 14
12 12 12 12 12 12 12 12 13 13 13 13 13 13 13 13 13 13 13 14 14 14 14 14 15 15 15 15 14 14 14 15 15 16 16 17 19 21 21 20 19 19 20 21 20 20 19 19 19 19 19 18 18 18 18 18 19 19 20 20 20 21 20 19 18 17 17 16 16 15 16 16 16 16 16 16 15 15 14 14 14 14 14 14 14 14
11 11 11 12 12 12 12 12 13 13 13 13 13 13 13 13 13 13 14 14 14 14 14 14 15 15 16 16 15 15 14 15 15 16 16 17 19 21 22 20 19 19 20 20 20 20 19 19 19 19 19 18 18 18 18 19 19 20 21 21 21 21 20 19 18 17 17 16 16 16 16 16 16 16 16 16 15 15 14 14 14 14 15 15 15 15
11 11 11 12 12 12 12 12 13 13 13 13 13 13 13 13 13 14 14 14 14 14 14 15 15 16 16 17 17 16 15 15 15 16 17 18 20 22 22 20 19 19 19 20 20 20 20 19 19 19 19 19 19 19 19 20 20 21 21 22 21 21 20 19 18 17 17 17 16 16 16 16 16 16 16 16 15 15 14 14 14 14 15 15 15 15
11 11 11 11 12 12 12 12 13 13 13 13 13 13 13 14 14 14 15 15 15 15 15 15 16 16 17 17 18 17 17 16 15 16 17 18 20 22 22 21 20 19 19 19 20 20 20 20 20 20 20 20 20 20 20 20 21 21 22 22 21 21 20 19 18 17 17 17 16 16 16 16 16 16 16 16 15 15 14 14 14 15 15 15 15 16
11 11 11 12 12 12 12 12 13 13 13 14 14 14 14 14 14 15 15 15 15 16 16 17 17 17 18 17 17 17 19 17 16 15 16 17 19 21 21 20 19 18 18 18 19 19 19 20 20 20 20 20 20 20 20 20 20 21 21 21 21 20 19 18 18 17 17 17 17 16 16 16 16 16 16 16 15 15 15 15 15 15 15 15 15 16
11 11 12 12 12 12 12 13 13 13 14 14 14 15 15 15 15 15 15 16 16 16 17 18 18 19 19 18 17 18 20 19 17 16 16 16 18 20 20 19 18 18 18 18 19 18 18 19 21 21 20 20 20 20 19 19 19 19 19 20 19 19 18 18 17 17 17 17 17 17 17 17 16 16 16 16 15 15 15 15 15 15 15 15 15 16
11 12 12 12 12 13 13 13 13 14 14 14 15 15 15 16 16 16 16 16 16 17 17 18 19 19 19 19 19 20 21 20 19 18 18 17 18 19 19 18 17 18 18 19 19 20 20 21 23 23 22 22 21 20 19 19 19 18 18 18 18 18 17 17 17 17 17 17 17 17 17 16 16 16 16 15 15 15 15 15 15 15 15 15 15 15
11 12 12 12 12 13 13 14 14 14 14 14 15 15 15 15 16 16 16 16 16 17 17 18 18 19 19 20 20 21 21 21 20 19 19 19 19 19 19 19 18 18 19 19 20 21 21 22 23 23 23 23 22 21 20 19 18 18 18 18 17 17 17 17 17 16 16 16 17 17 16 16 16 16 16 15 15 15 15 15 15 15 15 15 15 15
11 11 12 12 12 13 13 14 14 14 14 15 15 15 15 15 16 16 16 16 17 17 17 17 18 18 19 19 20 20 22 21 20 19 19 19 20 20 20 20 20 20 19 20 21 21 21 22 22 22 22 23 23 22 20 19 18 18 18 17 17 17 16 16 16 16 16 16 16 16 16 16 16 16 16 15 15 15 15 15 15 15 15 15 15 15
12 12 12 12 12 13 13 14 14 14 14 15 15 15 15 16 16 16 16 16 17 17 17 18 18 18 19 19 19 20 21 21 20 20 20 20 21 21 21 21 21 21 20 21 22 22 22 22 22 22 22 22 22 22 21 19 17 17 17 17 17 17 16 16 15 15 16 16 16 16 16 16 16 15 15 15 15 15 15 15 15 15 15 15 15 14
12 13 13 13 13 13 13 14 14 14 14 14 14 15 15 15 15 16 16 16 16 17 17 18 18 18 18 19 19 20 21 21 20 20 20 21 21 21 21 21 22 21 21 21 22 22 22 22 22 22 22 22 21 21 21 19 17 15 16 16 17 16 16 16 15 15 16 16 16 16 16 16 15 15 15 15 15 15 15 15 15 15 15 15 15 15
13 13 14 14 14 14 14 14 14 14 14 14 14 14 14 15 15 15 15 15 16 16 16 17 17 18 18 18 18 19 20 20 20 20 20 20 20 21 21 21 21 21 21 21 21 22 22 22 22 22 22 21 20 20 20 19 17 15 15 16 16 17 16 16 15 15 16 16 16 16 16 15 15 15 15 15 15 15 15 15 15 15 15 15 15 15
14 14 14 15 15 15 15 14 14 14 14 14 14 14 14 14 14 14 14 15 15 16 16 16 16 17 17 17 17 18 18 19 19 19 19 19 19 20 20 20 20 20 20 20 20 20 21 21 21 21 21 20 19 19 19 18 17 15 15 16 16 17 17 16 16 16 16 16 16 16 16 16 15 15 15 15 16 16 16 16 16 15 16 16 16 16
14 14 14 15 16 16 16 15 15 15 15 15 14 14 14 14 14 14 14 14 15 15 15 15 16 16 16 16 17 17 17 17 17 17 17 17 18 18 18 19 19 19 19 19 19 19 20 20 20 20 19 19 19 19 19 19 17 16 15 15 16 16 16 16 16 16 16 16 16 16 16 16 16 16 16 16 16 16 16 16 16 16 16 17 17 17
15 15 15 16 17 17 16 16 16 16 16 15 15 15 14 14 14 14 14 14 14 14 14 15 15 15 16 16 16 15 15 16 16 16 16 16 16 16 17 17 17 17 17 17 17 18 18 19 19 19 18 18 18 19 19 19 17 16 15 15 15 16 17 17 16 16 16 16 16 16 16 16 16 16 16 16 16 16 16 16 16 17 17 17 18 18
16 16 16 17 18 18 17 17 17 17 16 16 16 16 15 15 14 14 14 14 14 14 14 14 14 15 15 15 14 14 14 14 14 15 15 15 15 15 15 15 16 16 16 16 16 17 17 17 17 17 17 17 18 18 19 19 18 17 16 16 16 16 17 17 17 16 16 16 16 16 16 17 17 16 16 17 16 16 17 17 17 17 18 18 18 19
17 17 17 18 19 18 18 17 17 17 17 18 17 17 16 16 15 15 15 15 15 14 14 14 14 14 15 15 14 13 12 12 13 13 14 14 14 14 14 15 15 15 15 15 15 16 16 16 16 16 16 16 17 17 18 18 18 17 17 16 16 16 17 17 17 16 16 17 17 17 17 17 17 17 17 17 17 17 17 18 18 18 18 19 19 19
18 18 19 19 19 19 18 18 18 18 18 18 19 19 18 17 16 16 15 15 15 15 15 14 14 14 14 14 14 14 13 11 11 11 12 13 14 14 14 14 14 14 14 14 15 15 15 15 15 15 15 16 16 17 17 18 18 18 17 17 16 17 17 17 17 16 16 17 17 17 17 17 17 17 17 18 18 18 18 18 19 19 19 19 19 19
19 20 20 20 19 18 18 18 18 18 18 19 19 19 19 18 17 17 16 16 16 16 16 15 15 15 15 14 14 14 14 13 11 10 10 12 12 13 13 13 14 14 14 14 14 15 15 15 15 15 15 16 16 17 17 17 17 17 17 17 17 17 17 18 18 18 17 17 17 17 17 17 17 18 18 19 19 19 19 19 19 19 20 20 20 20
20 20 20 20 20 19 19 18 18 18 18 18 19 19 19 19 18 17 17 16 16 16 16 16 15 15 15 14 14 14 14 14 13 11 10 10 11 12 13 13 13 13 14 14 14 14 15 15 15 15 16 16 17 17 17 16 16 17 17 17 17 17 17 18 19 18 18 17 17 17 17 18 18 18 19 19 20 20 20 20 20 20 20 21 21 21
21 21 21 21 20 20 19 19 18 18 18 18 18 18 18 18 18 17 17 16 16 17 17 17 16 16 16 15 14 14 14 14 14 13 11 9 9 10 12 12 13 13 13 14 14 14 15 15 15 16 16 17 17 17 16 16 16 16 16 17 17 18 18 18 18 19 18 18 17 18 18 18 19 19 20 20 20 20 21 21 21 21 21 21 22 22
21 21 21 20 20 20 20 19 18 18 18 18 17 17 17 17 17 17 16 16 17 17 17 18 18 17 17 16 15 14 14 14 14 15 13 11 9 9 10 12 13 13 14 14 14 15 15 15 15 16 16 17 17 17 17 16 15 15 15 16 17 18 18 18 18 18 18 18 18 18 18 19 19 20 20 21 21 21 22 22 22 22 22 22 22 23
21 20 20 20 20 20 20 19 18 17 17 17 16 16 16 16 16 16 16 16 16 17 17 18 18 18 18 17 16 16 15 14 14 14 14 13 11 10 10 11 12 13 14 15 15 15 15 16 16 16 16 16 17 17 17 16 15 15 15 16 17 17 18 18 17 17 18 18 18 18 18 19 19 20 21 22 22 23 23 23 23 23 23 23 23 23
21 20 19 19 19 19 19 18 18 17 17 16 16 16 16 16 16 16 15 16 16 16 17 17 18 18 18 18 17 16 16 15 15 15 15 14 13 11 11 11 12 13 14 15 16 16 16 17 17 16 16 16 16 16 16 16 15 15 16 16 16 17 17 17 17 17 17 18 18 18 18 19 19 20 21 23 23 24 24 24 24 24 23 23 23 23
20 20 19 19 19 18 18 18 17 17 17 17 16 16 16 16 16 15 15 15 15 15 16 16 17 17 17 17 17 16 16 15 15 15 15 15 15 13 12 12 12 13 14 15 16 17 17 18 18 17 16 15 15 15 15 15 15 15 16 16 16 16 17 17 16 16 17 17 18 18 18 19 19 21 22 23 24 25 25 25 25 24 24 23 23 23
Wind_Direction
266 268 271 272 271 271 272 274 275 275 277 279 281 282 283 284 283 281 279 279 279 279 277 275 275 276 277 277 276 275 275 277 281 284 284 281 276 272 269 269 271 272 274 275 275 276 276 275 274 272 268 264 260 257 257 257 256 254 253 252 252 250 251 251 251 252 253 254 254 252 253 256 261 265 266 265 262 259 258 260 262 264 266 265 266 268
268 270 272 273 272 272 273 275 276 277 279 281 282 284 286 287 286 284 282 281 279 277 275 273 273 275 277 278 278 278 279 281 283 284 280 274 270 268 269 271 273 274 274 276 277 278 277 274 269 264 260 256 252 249 248 248 248 247 246 246 247 248 249 249 252 254 255 254 252 252 255 260 264 266 264 262 259 258 258 260 261 263 263 263 264 267
272 273 274 275 276 277 277 279 281 282 283 284 283 283 283 283 284 283 283 282 279 276 272 270 270 273 276 279 280 280 279 279 278 276 273 269 268 270 274 276 278 278 278 279 280 281 278 271 262 255 250 247 245 244 243 245 246 246 245 245 247 249 250 252 254 257 258 258 258 260 263 267 268 266 262 259 258 259 260 262 263 263 262 261 261 262
272 273 275 277 279 280 280 280 281 282 281 279 275 271 270 272 276 279 282 282 279 273 268 265 267 272 277 280 279 276 273 270 268 268 268 270 273 276 279 281 281 281 281 283 283 282 279 272 262 253 247 244 243 243 243 246 248 249 248 248 250 252 255 257 260 263 265 266 268 270 272 272 271 268 264 261 261 261 263 264 264 263 261 260 259 259
271 273 276 279 280 280 281 281 281 280 278 275 270 267 265 267 272 276 280 280 277 270 264 262 266 273 279 279 274 269 263 260 260 263 267 272 277 280 281 281 282 282 283 283 284 283 279 274 266 258 251 247 245 244 245 247 249 250 250 250 251 253 256 259 261 264 266 268 270 271 271 271 270 268 266 264 263 263 263 263 262 261 260 258 257 256
276 277 279 281 282 283 284 286 286 285 283 279 274 271 270 271 273 276 277 276 272 267 262 263 268 273 274 271 266 261 259 258 260 264 269 274 277 279 279 279 279 280 281 281 281 280 278 275 270 265 258 251 247 244 244 245 247 249 249 249 250 251 254 257 259 262 264 266 267 267 267 267 267 266 265 264 263 263 262 261 260 259 257 256 255 254
279 280 282 284 286 288 290 292 293 293 291 286 282 278 276 275 275 275 275 272 268 264 263 266 268 268 265 261 259 258 260 262 264 266 269 272 274 275 275 275 275 276 276 277 278 278 277 275 273 270 263 254 247 242 240 241 244 246 248 248 249 251 253 255 257 259 261 262 263 263 264 264 264 265 265 265 266 266 265 264 262 260 258 255 253 251
278 281 284 287 291 294 297 298 298 298 296 292 288 283 280 277 275 273 271 267 263 261 264 267 266 262 258 256 258 261 264 266 267 267 267 267 269 270 270 270 271 272 273 274 276 277 277 277 277 274 268 256 246 239 237 238 242 245 248 250 251 252 253 254 254 254 255 256 258 259 261 262 264 266 268 270 271 272 272 270 267 264 260 255 251 248
282 285 288 291 296 300 303 303 301 300 299 296 293 290 286 282 277 271 267 263 260 260 262 265 264 261 260 261 264 267 268 267 267 265 265 263 264 265 266 267 268 269 271 273 275 277 278 280 281 279 272 260 248 241 239 241 244 247 250 252 254 254 255 253 252 250 249 251 252 255 258 262 265 268 271 273 273 273 272 272 270 266 261 255 250 246
291 292 293 294 297 300 303 304 301 299 300 300 297 293 289 286 281 276 270 265 261 259 261 263 265 266 268 270 271 271 269 266 264 262 261 260 260 261 263 264 266 268 270 273 275 278 279 282 284 282 275 264 253 247 246 248 250 253 254 255 256 255 254 252 251 250 249 250 252 255 258 261 264 267 268 267 266 267 268 269 269 266 261 254 248 244
301 302 302 301 299 297 297 296 295 296 298 297 294 291 288 286 285 283 279 274 268 264 263 264 266 269 272 273 272 270 268 264 261 258 256 254 254 256 259 261 264 266 269 272 275 278 280 283 284 282 276 267 258 254 253 254 256 257 257 257 256 255 253 252 251 252 253 254 256 257 259 260 260 259 259 259 260 261 264 267 267 264 258 251 246 243
304 306 307 306 304 300 296 292 292 293 293 291 291 291 290 291 291 291 289 285 279 274 270 268 267 267 269 270 269 266 265 263 261 259 257 255 254 255 257 260 262 265 268 272 275 278 281 283 284 282 277 269 262 258 257 258 259 259 259 258 256 254 252 252 252 254 256 258 259 260 260 259 256 254 253 255 257 260 263 265 265 262 255 249 244 242
302 303 303 303 301 300 299 299 298 296 293 291 294 298 299 295 293 292 289 286 283 279 273 268 265 264 263 263 263 263 262 262 263 262 260 258 259 259 260 261 264 266 269 272 275 278 281 284 284 282 277 271 266 262 260 261 260 260 258 256 253 252 251 251 253 255 258 260 262 262 262 261 257 254 253 254 257 260 263 264 263 258 253 248 244 243
298 299 298 296 297 299 302 304 306 307 306 302 298 295 293 292 291 289 285 281 277 273 268 265 263 263 261 260 260 260 260 261 261 261 260 259 260 261 262 262 264 267 269 271 274 278 281 284 284 282 278 273 269 265 264 262 260 258 255 252 251 250 250 252 254 257 260 262 264 265 265 263 261 258 256 257 259 261 262 261 259 256 251 247 245 243
296 296 295 296 298 301 304 307 308 309 309 306 300 295 292 291 290 288 283 278 274 270 266 263 261 260 260 258 257 257 256 257 259 259 258 257 257 258 259 260 262 264 267 270 273 278 282 284 285 283 278 274 270 268 266 262 259 254 251 250 250 250 252 254 257 260 263 265 267 268 267 266 263 261 259 259 260 260 260 259 257 254 250 248 246 244
296 296 297 300 303 305 305 305 304 303 302 301 298 295 293 291 289 285 281 276 273 271 268 265 263 262 261 260 258 255 253 253 254 254 255 254 254 255 256 257 259 262 266 269 274 278 282 284 284 282 279 274 271 268 266 263 258 253 250 249 250 252 254 257 260 263 266 268 269 269 268 267 264 263 261 260 260 259 258 257 255 253 250 248 246 245
294 295 296 299 300 299 299 298 297 296 295 295 294 293 292 290 287 283 279 276 274 271 268 266 265 265 264 262 258 255 252 249 249 250 252 251 251 253 255 256 258 262 266 270 274 279 282 283 283 281 278 275 271 268 265 263 259 255 252 251 252 254 257 260 263 266 268 269 270 269 268 266 264 263 261 261 260 259 258 257 255 253 251 248 246 244
293 291 291 291 292 293 293 294 294 293 293 292 293 293 293 290 287 283 279 276 273 270 269 268 267 267 266 261 256 254 253 247 246 247 248 247 249 251 254 256 258 262 266 270 274 277 279 280 280 279 277 274 270 267 264 262 260 258 256 255 255 257 260 262 265 268 269 270 269 268 266 265 263 262 261 261 260 259 258 257 255 253 251 248 246 243
292 290 288 288 288 289 290 291 292 293 292 291 291 292 292 290 287 284 281 278 275 272 269 266 265 265 265 264 260 256 251 247 245 245 244 244 246 249 252 254 256 260 264 267 271 274 276 276 276 275 274 272 269 265 262 260 259 259 258 258 259 260 262 265 268 270 270 270 269 267 265 263 262 262 261 261 260 259 258 257 256 254 251 248 245 242
292 290 287 286 286 286 287 288 289 290 290 289 290 290 291 290 289 287 285 282 279 276 271 265 261 260 260 261 259 254 246 243 242 242 243 243 244 247 250 252 255 259 262 265 268 271 273 273 273 272 272 270 268 264 261 259 259 259 259 260 262 263 265 268 270 271 271 270 268 265 263 262 261 261 261 260 260 259 258 256 255 253 250 247 244 241
290 289 288 289 287 285 284 286 287 288 288 288 288 288 288 288 287 286 285 282 280 275 270 264 259 258 258 257 254 248 240 238 238 240 242 244 245 246 249 252 255 259 262 265 267 269 271 271 271 270 269 268 266 263 260 259 259 259 260 261 263 265 268 270 272 272 271 269 267 264 262 261 260 260 260 260 259 258 256 255 253 251 249 246 242 239
289 290 290 290 288 285 284 284 286 287 286 286 285 283 282 280 279 278 278 278 275 271 265 261 259 259 258 254 250 243 236 235 237 240 243 245 246 247 248 251 255 258 262 265 267 268 269 269 269 268 267 266 264 261 259 258 258 259 260 262 264 267 270 272 273 273 272 269 267 264 262 261 260 260 260 260 258 256 254 253 251 248 246 243 240 237
288 288 289 287 286 285 286 287 289 290 287 285 282 279 277 274 272 271 271 271 269 268 265 263 261 258 253 248 244 240 235 234 234 237 242 246 248 249 250 251 254 257 261 264 266 267 267 267 267 266 265 263 262 260 258 258 258 259 260 263 265 268 271 273 274 274 273 270 267 264 262 261 260 260 260 259 257 255 252 250 248 245 243 240 238 234
286 286 286 286 287 289 291 293 292 290 287 284 281 278 275 272 270 267 265 265 266 266 267 266 263 259 255 251 247 244 241 237 236 238 242 247 250 252 252 253 255 257 260 262 264 266 266 266 265 264 263 261 260 259 258 258 258 259 261 264 267 270 272 274 274 274 273 270 267 265 262 261 260 260 259 258 256 253 250 247 244 242 239 237 234 231
286 286 287 287 289 291 293 291 289 286 284 283 281 278 275 272 270 268 268 268 268 268 269 269 267 264 260 257 253 250 248 245 244 243 245 248 251 253 255 255 256 258 260 262 263 265 266 266 264 262 260 259 258 258 257 258 259 261 263 266 268 271 273 274 274 274 273 271 268 265 262 260 259 258 258 256 254 251 247 244 241 238 236 234 231 229
288 289 289 290 290 290 289 287 285 284 283 282 280 278 276 273 272 270 270 269 270 270 271 271 270 268 265 262 259 256 255 253 251 249 249 251 253 255 257 257 258 260 262 263 264 265 266 266 264 262 259 258 257 258 258 259 260 262 265 267 270 272 273 274 274 274 273 271 268 265 262 260 258 257 256 254 252 249 245 241 238 235 233 231 229 227
290 290 290 290 290 289 287 286 285 284 283 282 280 278 276 274 273 272 271 270 270 270 271 271 272 271 270 268 265 262 260 258 257 255 254 255 256 258 259 259 260 261 263 265 266 266 266 265 264 262 260 258 258 258 259 261 262 264 266 269 271 272 273 274 274 273 272 270 267 264 261 258 257 255 254 252 250 247 243 239 236 233 231 228 226 224
290 291 291 291 291 290 289 287 286 284 283 282 279 277 276 275 274 272 271 271 271 271 271 271 272 273 274 273 270 266 263 262 260 259 258 257 258 259 261 261 262 263 264 265 266 266 265 264 263 262 261 260 259 260 261 263 264 266 268 270 271 272 272 273 272 272 270 268 265 262 259 257 255 253 252 250 248 244 240 237 233 231 229 227 224 221
292 293 293 293 293 292 290 288 286 284 283 281 279 277 275 274 273 272 271 272 272 272 271 271 271 272 273 273 273 271 267 263 261 260 259 258 259 260 262 263 263 263 264 266 266 265 263 262 262 263 263 262 261 261 262 264 266 268 269 270 271 271 271 271 271 270 268 266 263 260 258 255 253 251 250 248 245 242 238 235 232 229 228 226 223 220
291 292 293 292 292 291 289 288 286 284 282 280 278 276 274 273 271 271 272 272 272 272 271 271 271 271 272 273 275 275 273 267 262 260 259 259 260 261 263 264 264 264 264 265 266 266 265 263 262 262 263 264 264 264 265 266 267 269 269 270 270 270 269 269 268 267 266 264 262 259 256 253 251 249 248 246 244 241 237 233 230 229 227 226 224 221
291 291 291 290 289 288 287 286 284 283 282 280 278 276 274 273 272 272 272 272 273 273 273 272 272 272 272 273 276 277 276 272 267 263 261 261 261 263 265 266 266 265 263 262 263 264 267 267 265 263 263 264 266 267 267 268 269 269 269 269 269 268 267 266 265 265 263 261 259 256 254 251 249 247 246 244 242 239 236 233 230 228 227 226 225 223
291 290 290 289 287 286 285 284 284 283 282 281 280 278 277 275 274 273 273 273 273 273 274 274 274 274 274 274 274 273 273 274 273 270 266 264 265 266 268 268 267 264 262 260 259 259 262 266 268 267 266 266 267 269 270 270 270 270 269 269 268 267 265 264 263 261 260 259 256 254 251 249 247 245 244 242 240 238 235 233 231 229 227 226 225 224
290 290 289 288 287 286 286 285 284 283 283 282 281 281 280 278 276 275 274 273 273 273 273 274 274 275 275 275 274 272 272 273 274 273 270 268 267 268 269 268 266 264 262 260 259 258 257 261 265 268 270 270 270 270 270 271 270 270 269 268 267 266 264 262 260 259 257 255 253 251 249 247 245 244 242 241 239 237 235 233 232 231 229 227 226 224
289 289 289 290 290 289 288 287 286 285 284 283 283 282 281 279 278 276 274 273 273 273 273 273 273 274 275 276 275 274 273 272 272 273 272 270 268 268 269 267 265 263 262 260 260 260 259 261 264 267 270 271 271 270 270 269 269 269 268 268 267 265 263 261 259 257 255 253 251 249 247 246 244 243 241 239 237 236 234 233 233 232 231 230 228 226
289 289 290 292 292 292 291 290 288 287 286 285 284 282 281 279 278 276 275 273 272 271 271 271 271 271 272 273 274 274 274 273 273 273 272 270 269 268 267 266 265 264 263 262 262 262 262 263 264 266 269 271 272 272 270 268 267 267 266 266 265 264 262 260 258 255 253 250 249 247 246 244 243 242 241 239 237 235 233 232 232 232 232 232 231 229
291 292 292 292 292 292 291 290 289 287 286 285 284 283 282 281 279 277 275 274 272 271 270 269 269 269 269 270 270 272 273 273 273 272 270 269 268 268 267 266 265 265 264 264 264 264 264 265 265 266 267 270 272 273 273 270 267 264 264 263 263 262 261 259 256 253 251 249 247 246 245 243 242 242 240 239 237 235 233 232 231 230 231 231 231 231
293 293 292 292 291 291 290 289 288 287 286 285 284 284 283 282 281 280 279 277 275 274 273 272 271 270 269 268 268 269 270 271 271 270 269 268 268 267 267 266 266 265 264 264 265 266 266 267 267 268 268 269 271 273 274 272 269 264 261 260 259 259 258 257 254 252 249 248 247 246 244 243 242 241 240 239 237 235 233 231 230 229 229 229 230 232
291 292 292 291 291 290 289 288 288 288 288 287 286 285 285 285 284 284 282 281 280 278 277 275 274 273 272 271 270 270 270 271 271 270 269 268 268 267 267 267 266 265 264 264 264 266 267 267 269 270 270 271 271 272 273 272 270 266 260 256 255 255 255 255 253 250 249 247 247 246 245 244 242 241 240 238 237 235 234 232 230 229 228 229 229 230
289 290 290 290 290 290 289 289 289 290 290 290 289 288 288 287 286 285 284 283 282 281 279 278 276 275 275 274 274 274 274 274 273 272 271 269 268 267 267 267 266 266 265 264 263 264 265 266 267 268 270 272 273 272 271 271 270 266 260 255 253 253 253 252 251 250 248 247 246 246 245 244 243 241 240 239 237 236 235 234 232 230 229 229 230 230
287 288 288 289 289 289 290 291 292 292 292 291 291 290 289 289 288 287 286 285 283 282 281 280 278 278 277 277 277 277 277 277 276 275 273 271 269 268 267 267 267 266 266 264 264 263 264 264 265 266 267 268 269 270 271 270 269 266 262 258 254 251 250 249 249 248 247 246 246 245 245 244 243 242 241 240 239 237 236 235 234 232 231 230 229 229
287 288 288 287 287 288 290 291 291 291 291 291 291 290 290 290 289 289 288 287 285 284 283 282 281 280 280 280 280 280 280 280 279 277 275 273 271 270 269 268 268 267 267 266 265 263 263 263 264 264 265 265 265 266 269 270 269 266 263 260 255 251 248 246 246 246 246 246 245 245 245 244 244 243 242 241 240 239 238 237 236 235 234 233 233 232
286 287 287 285 285 287 289 290 290 290 290 290 290 290 291 291 292 293 292 291 289 288 287 286 285 285 284 283 282 282 282 282 281 280 278 276 275 273 272 271 270 269 268 267 266 265 264 264 264 264 264 264 264 265 266 268 267 265 262 259 256 254 250 247 245 244 245 245 245 245 245 244 244 243 242 241 240 239 238 237 237 237 236 236 235 235
284 285 284 284 285 287 288 288 288 288 289 290 291 292 293 294 296 297 297 297 296 295 293 292 291 290 290 289 288 286 284 282 282 281 280 279 278 276 275 274 272 271 270 269 268 267 266 265 264 263 263 263 263 264 263 265 266 265 262 258 257 256 256 251 247 244 244 245 246 246 245 245 244 244 243 242 241 240 239 238 238 238 238 238 238 238
283 284 283 283 285 286 287 286 286 287 288 290 292 293 294 296 297 298 299 299 299 300 300 299 298 296 295 295 297 297 294 288 283 282 281 280 279 278 277 277 276 274 272 270 269 269 268 267 266 265 265 264 263 263 263 263 264 264 262 260 257 256 257 256 252 247 244 244 245 246 246 246 246 245 244 243 242 241 240 239 239 239 240 240 240 240
281 282 283 283 284 284 284 284 284 284 286 288 290 292 293 295 296 297 299 299 300 301 301 303 302 300 300 301 302 303 301 298 293 288 284 282 281 280 279 279 278 276 275 273 271 270 270 269 268 267 266 265 264 263 263 263 264 264 264 263 260 258 257 257 255 252 247 245 246 247 247 247 247 247 246 245 244 242 242 240 240 240 241 241 241 241
279 280 281 282 283 283 283 283 283 284 285 287 288 289 291 292 294 296 297 298 299 300 301 303 303 302 303 305 306 306 304 303 301 298 291 287 284 283 282 280 279 278 277 275 273 272 271 270 270 269 268 267 265 264 264 264 264 265 265 265 264 261 259 258 257 255 252 249 247 247 248 248 249 248 248 247 246 245 244 243 242 241 241 242 242 242
278 279 280 281 282 283 283 283 284 286 287 288 289 289 290 291 292 294 296 297 298 299 300 302 303 303 305 306 307 307 305 305 305 303 298 292 287 285 284 282 281 279 278 276 275 273 272 271 270 270 269 268 268 268 267 267 266 266 266 267 266 265 262 260 258 258 256 254 251 249 248 249 249 249 250 250 249 248 246 245 243 242 242 242 242 243
276 277 278 280 282 283 285 286 288 289 290 291 292 291 291 291 292 293 294 295 296 296 298 299 301 303 304 305 306 306 306 305 305 305 302 298 292 286 283 283 282 281 279 277 276 274 273 272 271 270 269 269 270 271 272 271 270 270 269 268 267 266 265 263 261 260 259 257 254 252 250 249 249 250 251 251 251 250 248 246 244 243 242 242 243 243
274 275 276 278 280 283 286 288 290 292 293 294 294 294 293 292 292 293 292 292 293 293 294 296 298 299 300 303 304 305 306 305 305 304 302 301 297 291 284 281 280 280 280 278 277 276 274 273 271 271 270 271 272 273 275 276 275 274 272 270 268 267 267 266 265 264 262 260 258 255 252 250 250 250 251 251 251 250 249 248 246 245 243 243 243 243
272 274 275 277 279 281 284 288 290 292 294 295 295 294 293 293 293 292 292 291 290 290 291 292 293 295 296 299 302 303 304 304 304 303 302 301 299 295 289 284 280 279 280 279 279 278 277 275 273 271 271 272 274 276 277 279 278 276 274 271 269 268 268 268 267 267 265 264 261 258 254 251 250 249 249 250 250 250 250 249 247 246 244 243 243 243
272 273 275 276 278 280 283 285 287 289 291 292 293 293 293 292 292 292 292 290 289 289 289 289 290 291 293 295 298 299 300 301 301 301 299 299 298 296 293 288 284 282 282 281 281 280 280 279 278 276 273 272 274 277 278 278 278 277 274 273 271 270 270 269 269 268 267 266 264 261 257 253 250 248 248 249 250 250 250 249 249 248 246 245 244 244